Chagrin Falls, OH (44022)

4:38 AM EDT on August 05, 2015 (GMT -0400)
Bell Street Pepper Patch | | Change Station
CLOSE
Current Station
Personal Weather Station
Location: Chagrin Falls, OH
Elevation: 1010 ft
Nearby Weather Stations

Elev 1010 ft 41.43 °N, 81.38 °W | Updated 1 second ago

Clear
Clear
60.6 °F
Feels Like 60.6 °F
N
0.0
Wind Variable Wind from North
Gusts 0.0 mph

Today
High -- | Low -- °F
--% Chance of Precip.
Yesterday
High -- | Low -- °F
Precip. -- in
6:24 AM 8:38 PM
Waning Gibbous, 69% visible
Pressure 29.96 in
Visibility 10.0 miles
Clouds Clear
Dew Point 59 °F
Humidity 95%
Rainfall 0.00 in
Snow Depth Not available.
UV 0 out of 12
Pollen 7.60 out of 12
Air Quality Not available.
Flu Activity Not available.
METAR KBKL 050753Z 30011KT 10SM CLR 23/14 A2996 RMK AO2 SLP143 T02280144

More Conditions Fewer Conditions

Pressure 29.96 in
Visibility 10.0 miles
Clouds Clear
Dew Point 59 °F
Humidity 95%
Rainfall 0.00 in
Snow Depth Not available.
UV 0 out of 12
Pollen 7.60 out of 12
Air Quality Not available.
Flu Activity Not available.
METAR KBKL 050753Z 30011KT 10SM CLR 23/14 A2996 RMK AO2 SLP143 T02280144

More Conditions Fewer Conditions

10-Day Weather Forecast

×

Almanac

Astronomy

Aug. 05, 2015 Rise Set
Actual Time
Civil Twilight
Nautical Twilight
Astronomical Twilight
Moon
Length of Visible Light
Length of Day
Tomorrow will be .
, % of the Moon is Illuminated

Today's Extremes

State Highs State Lows

Community

WunderPhotos

Upload Photos

1,844,105 photos uploaded!

WunderBlogs® & News

Nearby

Air Quality

  Air Quality AQ Index Pollutant
Not available.

Snow Depth

Station Depth Elevation

Earthquake Activity

City Distance Mag. Time & Date
Minimum magnitude displayed is 2.5.

Coastal Water Temperatures

Place Temperature

Stations

Nearby Weather Stations

Station Location Temp. Windchill Dew Point Humidity Wind Precip. Elev Updated Type